Agenzia del porto Bunker Vibo
  Sponsor: LECHLER STOPPANI 

OBSERVATIONS
LATEST DOWNLOAD: 2019/01/22 09:12:42

STATION EGGP/033233
Tuesday, 22 January 2019, 07:50 UTC

pressure 1001 hPa
temperature 3 °C
dewpoint 0 °C
humidity 80.6%
wind W-12 knots
visibility Good
sky Scattered clouds
weather -

MAIN LOCATIONS

HOURLY DATA

HOTEL RESERVATION

WEATHER REPORT WEATHER REPORT

METEOMAR METEOMAR

WEATHER CHARTS WEATHER CHARTS

WEBCAM WEBCAM



 LIVERPOOL
COUNTRY
UNITED KINGDOM
     LAT
53.33 N
    LON
2.85 W
    ELEV
26 m
     REGION
-
     PROVINCE
-
     ZONE
-

LATEST 24 HOURS ( 48 OBSERVATIONS )
Observation time
UTC
temperature
humidity
%
pressure
hPa
  wind
knots
2019/01/22 07:503 801001W-12
2019/01/22 07:203 861001W-12
2019/01/22 06:503 861001WSW-11
2019/01/22 06:203 861001W-16
2019/01/22 05:504 861001WSW-10
2019/01/22 05:203 861001WNW-5
2019/01/22 04:504 861001W-11
2019/01/22 04:204 801001W-15
2019/01/22 03:504 801002WSW-10
2019/01/22 03:204 801002W-12
2019/01/22 02:504 861002WSW-15
2019/01/22 02:204 861002W-13
2019/01/22 01:504 861003WSW-11
2019/01/22 01:204 861003WSW-9
2019/01/22 00:503 931003SW-6
2019/01/22 00:204 861004W-9
2019/01/21 23:502 931004WSW-9
2019/01/21 23:203 931004WSW-9
2019/01/21 22:502 931004WSW-13
2019/01/21 22:204 861004WSW-17
2019/01/21 21:505 861004S-12
2019/01/21 21:205 861004SSE-11
2019/01/21 20:506 811005SSE-13
2019/01/21 20:205 801006SSE-11
2019/01/21 19:506 811007SSE-10
2019/01/21 19:206 871008SSE-11
2019/01/21 18:506 811009SSE-11
2019/01/21 17:506 751011S-13
2019/01/21 17:206 751012S-11
2019/01/21 16:505 801013S-10
2019/01/21 16:206 811014S-12
2019/01/21 15:505 801014S-9
2019/01/21 15:206 811015S-12
2019/01/21 14:505 801016S-11
2019/01/21 14:205 801016S-8
2019/01/21 13:506 811017S-9
2019/01/21 13:205 801018S-7
2019/01/21 12:505 801018S-8
2019/01/21 12:205 861019S-5
2019/01/21 11:504 801020S-5
2019/01/21 11:204 861021S-6
2019/01/21 10:504 861021S-7
2019/01/21 10:203 931021SSE-4
2019/01/21 09:503 931022SSE-4
2019/01/21 09:203 931022S-2
2019/01/21 08:503 931023S-3
2019/01/21 08:203 931023S-3
2019/01/21 07:503 931023S-3
( Previous data )

ARCHIVE   LOCAL FORECASTS   CLIMATE AVERAGES